owner,sensor,date,latitude,longitude,vertical_datum,mass_concentration_of_oxygen_in_sea_water,qcFlag 
DISL,ioos:station:DISL:BSCA:1,2013-05-01T00:00:00Z,30.3288,-87.8293,2.114,5.78,1111122 
DISL,ioos:station:DISL:BSCA:1,2013-05-01T00:30:00Z,30.3288,-87.8293,2.089,4.87,1111122 
DISL,ioos:station:DISL:BSCA:1,2013-05-01T01:00:00Z,30.3288,-87.8293,2.064,5.21,1111122 
DISL,ioos:station:DISL:BSCA:1,2013-05-01T01:30:00Z,30.3288,-87.8293,2.026,4.49,1111122 
DISL,ioos:station:DISL:BSCA:1,2013-05-01T02:00:00Z,30.3288,-87.8293,2.011,4.42,1111122 
DISL,ioos:station:DISL:BSCA:1,2013-05-01T02:30:00Z,30.3288,-87.8293,2.0,3.56,1111122 
DISL,ioos:station:DISL:BSCA:1,2013-05-01T03:00:00Z,30.3288,-87.8293,1.963,4.44,1111122 
DISL,ioos:station:DISL:BSCA:1,2013-05-01T03:30:00Z,30.3288,-87.8293,1.929,5.15,1111122 
DISL,ioos:station:DISL:BSCA:1,2013-05-01T04:00:00Z,30.3288,-87.8293,1.888,4.51,1111122 
DISL,ioos:station:DISL:BSCA:1,2013-05-01T04:30:00Z,30.3288,-87.8293,1.862,4.55,1111122 
DISL,ioos:station:DISL:BSCA:1,2013-05-01T05:00:00Z,30.3288,-87.8293,1.84,5.82,1111122 
DISL,ioos:station:DISL:BSCA:1,2013-05-01T05:30:00Z,30.3288,-87.8293,1.805,4.21,1111122 
DISL,ioos:station:DISL:BSCA:1,2013-05-01T06:00:00Z,30.3288,-87.8293,1.78,3.57,1111122 
DISL,ioos:station:DISL:BSCA:1,2013-05-01T06:30:00Z,30.3288,-87.8293,1.749,4.36,1111122 
DISL,ioos:station:DISL:BSCA:1,2013-05-01T07:00:00Z,30.3288,-87.8293,1.755,4.69,1111122 
DISL,ioos:station:DISL:BSCA:1,2013-05-01T07:30:00Z,30.3288,-87.8293,1.768,3.8,1111122 
DISL,ioos:station:DISL:BSCA:1,2013-05-01T08:00:00Z,30.3288,-87.8293,1.783,2.47,1111122 
DISL,ioos:station:DISL:BSCA:1,2013-05-01T08:30:00Z,30.3288,-87.8293,1.792,1.81,1111122 
DISL,ioos:station:DISL:BSCA:1,2013-05-01T09:00:00Z,30.3288,-87.8293,1.802,2.46,1111122 
DISL,ioos:station:DISL:BSCA:1,2013-05-01T09:30:00Z,30.3288,-87.8293,1.81,2.03,1111122 
DISL,ioos:station:DISL:BSCA:1,2013-05-01T10:00:00Z,30.3288,-87.8293,1.841,2.79,1111122 
DISL,ioos:station:DISL:BSCA:1,2013-05-01T10:30:00Z,30.3288,-87.8293,1.869,2.81,1111122 
DISL,ioos:station:DISL:BSCA:1,2013-05-01T11:00:00Z,30.3288,-87.8293,1.895,3.33,1111122 
DISL,ioos:station:DISL:BSCA:1,2013-05-01T11:30:00Z,30.3288,-87.8293,1.89,3.74,1111122 
DISL,ioos:station:DISL:BSCA:1,2013-05-01T12:00:00Z,30.3288,-87.8293,1.912,5.18,1111122 
DISL,ioos:station:DISL:BSCA:1,2013-05-01T12:30:00Z,30.3288,-87.8293,1.923,4.29,1111122 
DISL,ioos:station:DISL:BSCA:1,2013-05-01T13:00:00Z,30.3288,-87.8293,1.928,2.6,1111122 
DISL,ioos:station:DISL:BSCA:1,2013-05-01T13:30:00Z,30.3288,-87.8293,1.981,4.74,1111122 
DISL,ioos:station:DISL:BSCA:1,2013-05-01T14:00:00Z,30.3288,-87.8293,1.995,4.28,1111122 
DISL,ioos:station:DISL:BSCA:1,2013-05-01T14:30:00Z,30.3288,-87.8293,2.011,5.53,1111122 
DISL,ioos:station:DISL:BSCA:1,2013-05-01T15:00:00Z,30.3288,-87.8293,2.029,5.77,1111122 
DISL,ioos:station:DISL:BSCA:1,2013-05-01T15:30:00Z,30.3288,-87.8293,2.028,4.66,1111122 
DISL,ioos:station:DISL:BSCA:1,2013-05-01T16:00:00Z,30.3288,-87.8293,2.035,4.63,1111122 
DISL,ioos:station:DISL:BSCA:1,2013-05-01T16:30:00Z,30.3288,-87.8293,2.064,4.82,1111122 
DISL,ioos:station:DISL:BSCA:1,2013-05-01T17:00:00Z,30.3288,-87.8293,2.085,5.06,1111122 
DISL,ioos:station:DISL:BSCA:1,2013-05-01T17:30:00Z,30.3288,-87.8293,2.108,5.29,1111122 
DISL,ioos:station:DISL:BSCA:1,2013-05-01T18:00:00Z,30.3288,-87.8293,2.131,5.54,1111122 
DISL,ioos:station:DISL:BSCA:1,2013-05-01T18:30:00Z,30.3288,-87.8293,2.158,5.73,1111122 
DISL,ioos:station:DISL:BSCA:1,2013-05-01T19:00:00Z,30.3288,-87.8293,2.178,6.43,1111122 
DISL,ioos:station:DISL:BSCA:1,2013-05-01T19:30:00Z,30.3288,-87.8293,2.193,6.55,1111122 
DISL,ioos:station:DISL:BSCA:1,2013-05-01T20:00:00Z,30.3288,-87.8293,2.108,6.6,1111122 
DISL,ioos:station:DISL:BSCA:1,2013-05-01T20:30:00Z,30.3288,-87.8293,2.228,6.87,1111122 
DISL,ioos:station:DISL:BSCA:1,2013-05-01T21:00:00Z,30.3288,-87.8293,2.155,7.15,1111122 
DISL,ioos:station:DISL:BSCA:1,2013-05-01T21:30:00Z,30.3288,-87.8293,2.203,7.17,1111122 
DISL,ioos:station:DISL:BSCA:1,2013-05-01T22:00:00Z,30.3288,-87.8293,2.193,7.38,1111122 
DISL,ioos:station:DISL:BSCA:1,2013-05-01T22:30:00Z,30.3288,-87.8293,2.199,6.42,1111122 
DISL,ioos:station:DISL:BSCA:1,2013-05-01T23:00:00Z,30.3288,-87.8293,2.189,6.52,1111122 
DISL,ioos:station:DISL:BSCA:1,2013-05-01T23:30:00Z,30.3288,-87.8293,2.164,7.32,1111122 
DISL,ioos:station:DISL:BSCA:1,2013-05-02T00:00:00Z,30.3288,-87.8293,2.155,4.44,1111122 
DISL,ioos:station:DISL:BSCA:1,2013-05-02T00:30:00Z,30.3288,-87.8293,2.169,4.79,1111122 
DISL,ioos:station:DISL:BSCA:1,2013-05-02T01:00:00Z,30.3288,-87.8293,2.148,5.48,1111122 
DISL,ioos:station:DISL:BSCA:1,2013-05-02T01:30:00Z,30.3288,-87.8293,2.123,6.46,1111122 
DISL,ioos:station:DISL:BSCA:1,2013-05-02T02:00:00Z,30.3288,-87.8293,2.084,6.58,1111122 
DISL,ioos:station:DISL:BSCA:1,2013-05-02T02:30:00Z,30.3288,-87.8293,2.043,6.51,1111122 
DISL,ioos:station:DISL:BSCA:1,2013-05-02T03:00:00Z,30.3288,-87.8293,2.025,6.4,1111122 
DISL,ioos:station:DISL:BSCA:1,2013-05-02T03:30:00Z,30.3288,-87.8293,2.043,6.39,1111122 
DISL,ioos:station:DISL:BSCA:1,2013-05-02T04:00:00Z,30.3288,-87.8293,2.053,6.56,1111122 
DISL,ioos:station:DISL:BSCA:1,2013-05-02T04:30:00Z,30.3288,-87.8293,2.071,6.44,1111122 
DISL,ioos:station:DISL:BSCA:1,2013-05-02T05:00:00Z,30.3288,-87.8293,2.058,5.99,1111122 
DISL,ioos:station:DISL:BSCA:1,2013-05-02T05:30:00Z,30.3288,-87.8293,2.102,6.12,1111122 
DISL,ioos:station:DISL:BSCA:1,2013-05-02T06:00:00Z,30.3288,-87.8293,2.069,6.02,1111122 
DISL,ioos:station:DISL:BSCA:1,2013-05-02T06:30:00Z,30.3288,-87.8293,2.104,5.83,1111122 
DISL,ioos:station:DISL:BSCA:1,2013-05-02T07:00:00Z,30.3288,-87.8293,2.175,6.06,1111122 
DISL,ioos:station:DISL:BSCA:1,2013-05-02T07:30:00Z,30.3288,-87.8293,2.093,5.73,1111122 
DISL,ioos:station:DISL:BSCA:1,2013-05-02T08:00:00Z,30.3288,-87.8293,2.195,5.58,1111122 
DISL,ioos:station:DISL:BSCA:1,2013-05-02T08:30:00Z,30.3288,-87.8293,2.213,6.07,1111122 
DISL,ioos:station:DISL:BSCA:1,2013-05-02T09:00:00Z,30.3288,-87.8293,2.13,6.21,1111122 
DISL,ioos:station:DISL:BSCA:1,2013-05-02T09:30:00Z,30.3288,-87.8293,2.126,6.48,1111122 
DISL,ioos:station:DISL:BSCA:1,2013-05-02T10:00:00Z,30.3288,-87.8293,2.072,6.44,1111122 
DISL,ioos:station:DISL:BSCA:1,2013-05-02T10:30:00Z,30.3288,-87.8293,2.088,6.24,1111122 
DISL,ioos:station:DISL:BSCA:1,2013-05-02T11:00:00Z,30.3288,-87.8293,2.028,5.35,1111122 
DISL,ioos:station:DISL:BSCA:1,2013-05-02T11:30:00Z,30.3288,-87.8293,2.081,5.32,1111122 
DISL,ioos:station:DISL:BSCA:1,2013-05-02T12:00:00Z,30.3288,-87.8293,2.028,5.43,1111122 
DISL,ioos:station:DISL:BSCA:1,2013-05-02T12:30:00Z,30.3288,-87.8293,2.087,5.23,1111122 
DISL,ioos:station:DISL:BSCA:1,2013-05-02T13:00:00Z,30.3288,-87.8293,2.092,6.0,1111122 
DISL,ioos:station:DISL:BSCA:1,2013-05-02T13:30:00Z,30.3288,-87.8293,2.071,6.32,1111122 
DISL,ioos:station:DISL:BSCA:1,2013-05-02T14:00:00Z,30.3288,-87.8293,2.039,6.14,1111122 
DISL,ioos:station:DISL:BSCA:1,2013-05-02T14:30:00Z,30.3288,-87.8293,2.034,5.95,1111122 
DISL,ioos:station:DISL:BSCA:1,2013-05-02T15:00:00Z,30.3288,-87.8293,2.077,6.33,1111122 
DISL,ioos:station:DISL:BSCA:1,2013-05-02T15:30:00Z,30.3288,-87.8293,2.095,6.3,1111122 
DISL,ioos:station:DISL:BSCA:1,2013-05-02T16:00:00Z,30.3288,-87.8293,2.105,5.62,1111122 
DISL,ioos:station:DISL:BSCA:1,2013-05-02T16:30:00Z,30.3288,-87.8293,2.09,6.27,1111122 
DISL,ioos:station:DISL:BSCA:1,2013-05-02T17:00:00Z,30.3288,-87.8293,2.096,6.49,1111122 
DISL,ioos:station:DISL:BSCA:1,2013-05-02T17:30:00Z,30.3288,-87.8293,2.106,6.55,1111122 
DISL,ioos:station:DISL:BSCA:1,2013-05-02T18:00:00Z,30.3288,-87.8293,2.124,6.58,1111122 
DISL,ioos:station:DISL:BSCA:1,2013-05-02T18:30:00Z,30.3288,-87.8293,2.143,6.61,1111122 
DISL,ioos:station:DISL:BSCA:1,2013-05-02T19:00:00Z,30.3288,-87.8293,2.192,6.36,1111122 
DISL,ioos:station:DISL:BSCA:1,2013-05-02T19:30:00Z,30.3288,-87.8293,2.227,6.84,1111122 
DISL,ioos:station:DISL:BSCA:1,2013-05-02T20:00:00Z,30.3288,-87.8293,2.232,7.08,1111122 
DISL,ioos:station:DISL:BSCA:1,2013-05-02T20:30:00Z,30.3288,-87.8293,2.238,7.41,1111122 
DISL,ioos:station:DISL:BSCA:1,2013-05-02T21:00:00Z,30.3288,-87.8293,2.242,7.33,1111122 
DISL,ioos:station:DISL:BSCA:1,2013-05-02T21:30:00Z,30.3288,-87.8293,2.244,7.34,1111122 
DISL,ioos:station:DISL:BSCA:1,2013-05-02T22:00:00Z,30.3288,-87.8293,2.236,7.29,1111122 
DISL,ioos:station:DISL:BSCA:1,2013-05-02T22:30:00Z,30.3288,-87.8293,2.224,7.02,1111122 
DISL,ioos:station:DISL:BSCA:1,2013-05-02T23:00:00Z,30.3288,-87.8293,2.216,7.18,1111122 
DISL,ioos:station:DISL:BSCA:1,2013-05-02T23:30:00Z,30.3288,-87.8293,2.203,7.09,1111122 
DISL,ioos:station:DISL:BSCA:1,2013-05-03T00:00:00Z,30.3288,-87.8293,2.207,7.68,1111122 
DISL,ioos:station:DISL:BSCA:1,2013-05-03T00:30:00Z,30.3288,-87.8293,2.21,8.14,1111122 
DISL,ioos:station:DISL:BSCA:1,2013-05-03T01:00:00Z,30.3288,-87.8293,2.203,7.84,1111122 
DISL,ioos:station:DISL:BSCA:1,2013-05-03T01:30:00Z,30.3288,-87.8293,2.184,6.83,1111122 
DISL,ioos:station:DISL:BSCA:1,2013-05-03T02:00:00Z,30.3288,-87.8293,2.15,6.67,1111122 
DISL,ioos:station:DISL:BSCA:1,2013-05-03T02:30:00Z,30.3288,-87.8293,2.114,6.59,1111122 
DISL,ioos:station:DISL:BSCA:1,2013-05-03T03:00:00Z,30.3288,-87.8293,2.066,5.17,1111122 
DISL,ioos:station:DISL:BSCA:1,2013-05-03T03:30:00Z,30.3288,-87.8293,2.032,5.73,1111122 
DISL,ioos:station:DISL:BSCA:1,2013-05-03T04:00:00Z,30.3288,-87.8293,2.009,6.11,1111122 
DISL,ioos:station:DISL:BSCA:1,2013-05-03T04:30:00Z,30.3288,-87.8293,1.993,5.72,1111122 
DISL,ioos:station:DISL:BSCA:1,2013-05-03T05:00:00Z,30.3288,-87.8293,1.993,6.19,1111122 
DISL,ioos:station:DISL:BSCA:1,2013-05-03T05:30:00Z,30.3288,-87.8293,1.963,6.53,1111122 
DISL,ioos:station:DISL:BSCA:1,2013-05-03T06:00:00Z,30.3288,-87.8293,1.928,7.69,1111122 
DISL,ioos:station:DISL:BSCA:1,2013-05-03T06:30:00Z,30.3288,-87.8293,1.915,7.35,1111122 
DISL,ioos:station:DISL:BSCA:1,2013-05-03T07:00:00Z,30.3288,-87.8293,1.9,7.43,1111122 
DISL,ioos:station:DISL:BSCA:1,2013-05-03T07:30:00Z,30.3288,-87.8293,1.911,7.22,1111122 
DISL,ioos:station:DISL:BSCA:1,2013-05-03T08:00:00Z,30.3288,-87.8293,1.903,7.41,1111122 
DISL,ioos:station:DISL:BSCA:1,2013-05-03T08:30:00Z,30.3288,-87.8293,1.922,6.32,1111122 
DISL,ioos:station:DISL:BSCA:1,2013-05-03T09:00:00Z,30.3288,-87.8293,1.944,5.95,1111122 
DISL,ioos:station:DISL:BSCA:1,2013-05-03T09:30:00Z,30.3288,-87.8293,1.951,5.29,1111122 
DISL,ioos:station:DISL:BSCA:1,2013-05-03T10:00:00Z,30.3288,-87.8293,1.972,4.7,1111122 
DISL,ioos:station:DISL:BSCA:1,2013-05-03T10:30:00Z,30.3288,-87.8293,1.983,3.71,1111122 
DISL,ioos:station:DISL:BSCA:1,2013-05-03T11:00:00Z,30.3288,-87.8293,2.006,4.17,1111122 
DISL,ioos:station:DISL:BSCA:1,2013-05-03T11:30:00Z,30.3288,-87.8293,2.011,4.04,1111122 
DISL,ioos:station:DISL:BSCA:1,2013-05-03T12:00:00Z,30.3288,-87.8293,2.028,4.31,1111122 
DISL,ioos:station:DISL:BSCA:1,2013-05-03T12:30:00Z,30.3288,-87.8293,2.041,4.43,1111122 
DISL,ioos:station:DISL:BSCA:1,2013-05-03T13:00:00Z,30.3288,-87.8293,2.063,3.24,1111122 
DISL,ioos:station:DISL:BSCA:1,2013-05-03T13:30:00Z,30.3288,-87.8293,2.094,3.78,1111122 
DISL,ioos:station:DISL:BSCA:1,2013-05-03T14:00:00Z,30.3288,-87.8293,2.115,4.75,1111122 
DISL,ioos:station:DISL:BSCA:1,2013-05-03T14:30:00Z,30.3288,-87.8293,2.135,4.53,1111122 
DISL,ioos:station:DISL:BSCA:1,2013-05-03T15:00:00Z,30.3288,-87.8293,2.138,3.44,1111122 
DISL,ioos:station:DISL:BSCA:1,2013-05-03T15:30:00Z,30.3288,-87.8293,2.166,2.79,1111122 
DISL,ioos:station:DISL:BSCA:1,2013-05-03T16:00:00Z,30.3288,-87.8293,2.176,4.9,1111122 
DISL,ioos:station:DISL:BSCA:1,2013-05-03T16:30:00Z,30.3288,-87.8293,2.184,3.98,1111122 
DISL,ioos:station:DISL:BSCA:1,2013-05-03T17:00:00Z,30.3288,-87.8293,2.188,4.88,1111122 
DISL,ioos:station:DISL:BSCA:1,2013-05-03T17:30:00Z,30.3288,-87.8293,2.185,4.85,1111122 
DISL,ioos:station:DISL:BSCA:1,2013-05-03T18:00:00Z,30.3288,-87.8293,2.183,4.99,1111122 
DISL,ioos:station:DISL:BSCA:1,2013-05-03T18:30:00Z,30.3288,-87.8293,2.194,4.55,1111122 
DISL,ioos:station:DISL:BSCA:1,2013-05-03T19:00:00Z,30.3288,-87.8293,2.197,4.14,1111122 
DISL,ioos:station:DISL:BSCA:1,2013-05-03T19:30:00Z,30.3288,-87.8293,2.205,4.34,1111122 
DISL,ioos:station:DISL:BSCA:1,2013-05-03T20:00:00Z,30.3288,-87.8293,2.206,4.14,1111122 
DISL,ioos:station:DISL:BSCA:1,2013-05-03T20:30:00Z,30.3288,-87.8293,2.205,4.13,1111122 
DISL,ioos:station:DISL:BSCA:1,2013-05-03T21:00:00Z,30.3288,-87.8293,2.213,3.8,1111122 
DISL,ioos:station:DISL:BSCA:1,2013-05-03T21:30:00Z,30.3288,-87.8293,2.198,4.23,1111122 
DISL,ioos:station:DISL:BSCA:1,2013-05-03T22:00:00Z,30.3288,-87.8293,2.194,3.45,1111122 
DISL,ioos:station:DISL:BSCA:1,2013-05-03T22:30:00Z,30.3288,-87.8293,2.164,3.81,1111122 
DISL,ioos:station:DISL:BSCA:1,2013-05-03T23:00:00Z,30.3288,-87.8293,2.154,4.31,1111122 
DISL,ioos:station:DISL:BSCA:1,2013-05-03T23:30:00Z,30.3288,-87.8293,2.145,4.38,1111122 
DISL,ioos:station:DISL:BSCA:1,2013-05-04T00:00:00Z,30.3288,-87.8293,2.154,4.49,1111122 
DISL,ioos:station:DISL:BSCA:1,2013-05-04T00:30:00Z,30.3288,-87.8293,2.234,5.43,1111122 
DISL,ioos:station:DISL:BSCA:1,2013-05-04T01:00:00Z,30.3288,-87.8293,2.202,5.13,1111122 
DISL,ioos:station:DISL:BSCA:1,2013-05-04T01:30:00Z,30.3288,-87.8293,2.389,4.49,1111122 
DISL,ioos:station:DISL:BSCA:1,2013-05-04T02:00:00Z,30.3288,-87.8293,2.184,4.48,1111122 
DISL,ioos:station:DISL:BSCA:1,2013-05-04T02:30:00Z,30.3288,-87.8293,2.249,5.08,1111122 
DISL,ioos:station:DISL:BSCA:1,2013-05-04T03:00:00Z,30.3288,-87.8293,2.046,5.71,1111122 
DISL,ioos:station:DISL:BSCA:1,2013-05-04T03:30:00Z,30.3288,-87.8293,1.987,6.44,1111122 
DISL,ioos:station:DISL:BSCA:1,2013-05-04T04:00:00Z,30.3288,-87.8293,2.215,6.08,1111122 
DISL,ioos:station:DISL:BSCA:1,2013-05-04T04:30:00Z,30.3288,-87.8293,2.071,6.43,1111122 
DISL,ioos:station:DISL:BSCA:1,2013-05-04T05:00:00Z,30.3288,-87.8293,2.014,6.41,1111122 
DISL,ioos:station:DISL:BSCA:1,2013-05-04T05:30:00Z,30.3288,-87.8293,2.063,6.9,1111122 
DISL,ioos:station:DISL:BSCA:1,2013-05-04T06:00:00Z,30.3288,-87.8293,1.89,6.68,1111122 
DISL,ioos:station:DISL:BSCA:1,2013-05-04T06:30:00Z,30.3288,-87.8293,1.919,6.4,1111122 
DISL,ioos:station:DISL:BSCA:1,2013-05-04T07:00:00Z,30.3288,-87.8293,1.858,6.84,1111122 
DISL,ioos:station:DISL:BSCA:1,2013-05-04T07:30:00Z,30.3288,-87.8293,1.784,7.03,1111122 
DISL,ioos:station:DISL:BSCA:1,2013-05-04T08:00:00Z,30.3288,-87.8293,1.834,7.2,1111122 
DISL,ioos:station:DISL:BSCA:1,2013-05-04T08:30:00Z,30.3288,-87.8293,1.761,7.12,1111122 
DISL,ioos:station:DISL:BSCA:1,2013-05-04T09:00:00Z,30.3288,-87.8293,1.727,7.16,1111122 
DISL,ioos:station:DISL:BSCA:1,2013-05-04T09:30:00Z,30.3288,-87.8293,1.685,7.32,1111122 
DISL,ioos:station:DISL:BSCA:1,2013-05-04T10:00:00Z,30.3288,-87.8293,1.707,7.57,1111122 
DISL,ioos:station:DISL:BSCA:1,2013-05-04T10:30:00Z,30.3288,-87.8293,1.693,7.71,1111122 
DISL,ioos:station:DISL:BSCA:1,2013-05-04T11:00:00Z,30.3288,-87.8293,1.691,7.8,1111122 
DISL,ioos:station:DISL:BSCA:1,2013-05-04T11:30:00Z,30.3288,-87.8293,1.717,7.83,1111122 
DISL,ioos:station:DISL:BSCA:1,2013-05-04T12:00:00Z,30.3288,-87.8293,1.744,7.66,1111122 
DISL,ioos:station:DISL:BSCA:1,2013-05-04T12:30:00Z,30.3288,-87.8293,1.757,7.59,1111122 
DISL,ioos:station:DISL:BSCA:1,2013-05-04T13:00:00Z,30.3288,-87.8293,1.788,7.63,1111122 
DISL,ioos:station:DISL:BSCA:1,2013-05-04T13:30:00Z,30.3288,-87.8293,1.784,7.66,1111122 
DISL,ioos:station:DISL:BSCA:1,2013-05-04T14:00:00Z,30.3288,-87.8293,1.903,7.79,1111122 
DISL,ioos:station:DISL:BSCA:1,2013-05-04T14:30:00Z,30.3288,-87.8293,1.879,7.85,1111122 
DISL,ioos:station:DISL:BSCA:1,2013-05-04T15:00:00Z,30.3288,-87.8293,1.942,7.89,1111122 
DISL,ioos:station:DISL:BSCA:1,2013-05-04T15:30:00Z,30.3288,-87.8293,1.922,7.94,1111122 
DISL,ioos:station:DISL:BSCA:1,2013-05-04T16:00:00Z,30.3288,-87.8293,1.996,7.94,1111122 
DISL,ioos:station:DISL:BSCA:1,2013-05-04T16:30:00Z,30.3288,-87.8293,1.971,8.03,1111122 
DISL,ioos:station:DISL:BSCA:1,2013-05-04T17:00:00Z,30.3288,-87.8293,1.965,8.11,1111122 
DISL,ioos:station:DISL:BSCA:1,2013-05-04T17:30:00Z,30.3288,-87.8293,1.958,8.15,1111122 
DISL,ioos:station:DISL:BSCA:1,2013-05-04T18:00:00Z,30.3288,-87.8293,2.004,8.18,1111122 
DISL,ioos:station:DISL:BSCA:1,2013-05-04T18:30:00Z,30.3288,-87.8293,1.955,8.23,1111122 
DISL,ioos:station:DISL:BSCA:1,2013-05-04T19:00:00Z,30.3288,-87.8293,1.897,8.3,1111122 
DISL,ioos:station:DISL:BSCA:1,2013-05-04T19:30:00Z,30.3288,-87.8293,1.943,8.35,1111122 
DISL,ioos:station:DISL:BSCA:1,2013-05-04T20:00:00Z,30.3288,-87.8293,1.941,8.44,1111122 
DISL,ioos:station:DISL:BSCA:1,2013-05-04T20:30:00Z,30.3288,-87.8293,1.95,8.48,1111122 
DISL,ioos:station:DISL:BSCA:1,2013-05-04T21:00:00Z,30.3288,-87.8293,1.902,8.36,1111122 
DISL,ioos:station:DISL:BSCA:1,2013-05-04T21:30:00Z,30.3288,-87.8293,1.974,8.4,1111122 
DISL,ioos:station:DISL:BSCA:1,2013-05-04T22:00:00Z,30.3288,-87.8293,1.963,8.42,1111122 
DISL,ioos:station:DISL:BSCA:1,2013-05-04T22:30:00Z,30.3288,-87.8293,1.977,8.28,1111122 
DISL,ioos:station:DISL:BSCA:1,2013-05-04T23:00:00Z,30.3288,-87.8293,1.982,8.25,1111122 
DISL,ioos:station:DISL:BSCA:1,2013-05-04T23:30:00Z,30.3288,-87.8293,1.973,8.24,1111122 
DISL,ioos:station:DISL:BSCA:1,2013-05-05T00:00:00Z,30.3288,-87.8293,1.961,7.96,1111122 
DISL,ioos:station:DISL:BSCA:1,2013-05-05T00:30:00Z,30.3288,-87.8293,1.966,7.67,1111122 
DISL,ioos:station:DISL:BSCA:1,2013-05-05T01:00:00Z,30.3288,-87.8293,1.984,7.3,1111122 
DISL,ioos:station:DISL:BSCA:1,2013-05-05T01:30:00Z,30.3288,-87.8293,1.995,7.24,1111122 
DISL,ioos:station:DISL:BSCA:1,2013-05-05T02:00:00Z,30.3288,-87.8293,2.001,6.72,1111122 
DISL,ioos:station:DISL:BSCA:1,2013-05-05T02:30:00Z,30.3288,-87.8293,2.018,8.17,1111122 
DISL,ioos:station:DISL:BSCA:1,2013-05-05T03:00:00Z,30.3288,-87.8293,2.017,8.13,1111122 
DISL,ioos:station:DISL:BSCA:1,2013-05-05T03:30:00Z,30.3288,-87.8293,1.996,8.1,1111122 
DISL,ioos:station:DISL:BSCA:1,2013-05-05T04:00:00Z,30.3288,-87.8293,2.006,7.83,1111122 
DISL,ioos:station:DISL:BSCA:1,2013-05-05T04:30:00Z,30.3288,-87.8293,1.987,7.62,1111122 
DISL,ioos:station:DISL:BSCA:1,2013-05-05T05:00:00Z,30.3288,-87.8293,1.97,7.6,1111122 
DISL,ioos:station:DISL:BSCA:1,2013-05-05T05:30:00Z,30.3288,-87.8293,1.959,7.21,1111122 
DISL,ioos:station:DISL:BSCA:1,2013-05-05T06:00:00Z,30.3288,-87.8293,1.944,7.18,1111122 
DISL,ioos:station:DISL:BSCA:1,2013-05-05T06:30:00Z,30.3288,-87.8293,1.937,6.08,1111122 
DISL,ioos:station:DISL:BSCA:1,2013-05-05T07:00:00Z,30.3288,-87.8293,1.95,6.21,1111122 
DISL,ioos:station:DISL:BSCA:1,2013-05-05T07:30:00Z,30.3288,-87.8293,1.987,5.76,1111122 
DISL,ioos:station:DISL:BSCA:1,2013-05-05T08:00:00Z,30.3288,-87.8293,2.023,6.8,1111122 
DISL,ioos:station:DISL:BSCA:1,2013-05-05T08:30:00Z,30.3288,-87.8293,2.114,7.46,1111122 
DISL,ioos:station:DISL:BSCA:1,2013-05-05T09:00:00Z,30.3288,-87.8293,1.912,7.5,1111122 
DISL,ioos:station:DISL:BSCA:1,2013-05-05T09:30:00Z,30.3288,-87.8293,2.013,7.56,1111122 
DISL,ioos:station:DISL:BSCA:1,2013-05-05T10:00:00Z,30.3288,-87.8293,2.058,7.65,1111122 
DISL,ioos:station:DISL:BSCA:1,2013-05-05T10:30:00Z,30.3288,-87.8293,1.932,7.62,1111122 
DISL,ioos:station:DISL:BSCA:1,2013-05-05T11:00:00Z,30.3288,-87.8293,2.012,7.59,1111122 
DISL,ioos:station:DISL:BSCA:1,2013-05-05T11:30:00Z,30.3288,-87.8293,2.014,7.63,1111122 
DISL,ioos:station:DISL:BSCA:1,2013-05-05T12:00:00Z,30.3288,-87.8293,2.032,7.78,1111122 
DISL,ioos:station:DISL:BSCA:1,2013-05-05T12:30:00Z,30.3288,-87.8293,1.977,7.77,1111122 
DISL,ioos:station:DISL:BSCA:1,2013-05-05T13:00:00Z,30.3288,-87.8293,2.037,7.82,1111122 
DISL,ioos:station:DISL:BSCA:1,2013-05-05T13:30:00Z,30.3288,-87.8293,2.146,7.8,1111122 
DISL,ioos:station:DISL:BSCA:1,2013-05-05T14:00:00Z,30.3288,-87.8293,2.137,7.9,1111122 
DISL,ioos:station:DISL:BSCA:1,2013-05-05T14:30:00Z,30.3288,-87.8293,2.197,7.82,1111122 
DISL,ioos:station:DISL:BSCA:1,2013-05-05T15:00:00Z,30.3288,-87.8293,2.13,7.93,1111122 
DISL,ioos:station:DISL:BSCA:1,2013-05-05T15:30:00Z,30.3288,-87.8293,2.078,7.96,1111122 
DISL,ioos:station:DISL:BSCA:1,2013-05-05T16:00:00Z,30.3288,-87.8293,2.108,7.96,1111122 
DISL,ioos:station:DISL:BSCA:1,2013-05-05T16:30:00Z,30.3288,-87.8293,2.129,7.92,1111122 
DISL,ioos:station:DISL:BSCA:1,2013-05-05T17:00:00Z,30.3288,-87.8293,2.016,8.02,1111122 
DISL,ioos:station:DISL:BSCA:1,2013-05-05T17:30:00Z,30.3288,-87.8293,2.071,8.1,1111122 
DISL,ioos:station:DISL:BSCA:1,2013-05-05T18:00:00Z,30.3288,-87.8293,2.05,8.14,1111122 
DISL,ioos:station:DISL:BSCA:1,2013-05-05T18:30:00Z,30.3288,-87.8293,2.025,8.15,1111122 
DISL,ioos:station:DISL:BSCA:1,2013-05-05T19:00:00Z,30.3288,-87.8293,1.984,8.22,1111122 
DISL,ioos:station:DISL:BSCA:1,2013-05-05T19:30:00Z,30.3288,-87.8293,1.964,8.13,1111122 
DISL,ioos:station:DISL:BSCA:1,2013-05-05T20:00:00Z,30.3288,-87.8293,1.947,8.16,1111122 
DISL,ioos:station:DISL:BSCA:1,2013-05-05T20:30:00Z,30.3288,-87.8293,1.879,8.21,1111122 
DISL,ioos:station:DISL:BSCA:1,2013-05-05T21:00:00Z,30.3288,-87.8293,1.839,8.16,1111122 
DISL,ioos:station:DISL:BSCA:1,2013-05-05T21:30:00Z,30.3288,-87.8293,1.814,8.33,1111122 
DISL,ioos:station:DISL:BSCA:1,2013-05-05T22:00:00Z,30.3288,-87.8293,1.78,8.39,1111122 
DISL,ioos:station:DISL:BSCA:1,2013-05-05T22:30:00Z,30.3288,-87.8293,1.777,8.35,1111122 
DISL,ioos:station:DISL:BSCA:1,2013-05-05T23:00:00Z,30.3288,-87.8293,1.776,8.31,1111122 
DISL,ioos:station:DISL:BSCA:1,2013-05-05T23:30:00Z,30.3288,-87.8293,1.748,8.32,1111122 
DISL,ioos:station:DISL:BSCA:1,2013-05-06T00:00:00Z,30.3288,-87.8293,1.762,8.34,1111122 
DISL,ioos:station:DISL:BSCA:1,2013-05-06T00:30:00Z,30.3288,-87.8293,1.74,8.33,1111122 
DISL,ioos:station:DISL:BSCA:1,2013-05-06T01:00:00Z,30.3288,-87.8293,1.747,8.28,1111122 
DISL,ioos:station:DISL:BSCA:1,2013-05-06T01:30:00Z,30.3288,-87.8293,1.724,8.18,1111122 
DISL,ioos:station:DISL:BSCA:1,2013-05-06T02:00:00Z,30.3288,-87.8293,1.708,8.25,1111122 
DISL,ioos:station:DISL:BSCA:1,2013-05-06T02:30:00Z,30.3288,-87.8293,1.696,8.21,1111122 
DISL,ioos:station:DISL:BSCA:1,2013-05-06T03:00:00Z,30.3288,-87.8293,1.693,8.04,1111122 
DISL,ioos:station:DISL:BSCA:1,2013-05-06T03:30:00Z,30.3288,-87.8293,1.695,8.06,1111122 
DISL,ioos:station:DISL:BSCA:1,2013-05-06T04:00:00Z,30.3288,-87.8293,1.747,7.96,1111122 
DISL,ioos:station:DISL:BSCA:1,2013-05-06T04:30:00Z,30.3288,-87.8293,1.786,8.05,1111122 
DISL,ioos:station:DISL:BSCA:1,2013-05-06T05:00:00Z,30.3288,-87.8293,1.751,8.12,1111122 
DISL,ioos:station:DISL:BSCA:1,2013-05-06T05:30:00Z,30.3288,-87.8293,1.795,8.02,1111122 
DISL,ioos:station:DISL:BSCA:1,2013-05-06T06:00:00Z,30.3288,-87.8293,1.785,8.05,1111122 
DISL,ioos:station:DISL:BSCA:1,2013-05-06T06:30:00Z,30.3288,-87.8293,1.807,7.89,1111122 
DISL,ioos:station:DISL:BSCA:1,2013-05-06T07:00:00Z,30.3288,-87.8293,1.783,7.87,1111122 
DISL,ioos:station:DISL:BSCA:1,2013-05-06T07:30:00Z,30.3288,-87.8293,1.803,7.62,1111122 
DISL,ioos:station:DISL:BSCA:1,2013-05-06T08:00:00Z,30.3288,-87.8293,1.79,7.74,1111122 
DISL,ioos:station:DISL:BSCA:1,2013-05-06T08:30:00Z,30.3288,-87.8293,1.841,7.75,1111122 
DISL,ioos:station:DISL:BSCA:1,2013-05-06T09:00:00Z,30.3288,-87.8293,1.88,7.68,1111122 
DISL,ioos:station:DISL:BSCA:1,2013-05-06T09:30:00Z,30.3288,-87.8293,1.901,7.67,1111122 
DISL,ioos:station:DISL:BSCA:1,2013-05-06T10:00:00Z,30.3288,-87.8293,1.952,7.5,1111122 
DISL,ioos:station:DISL:BSCA:1,2013-05-06T10:30:00Z,30.3288,-87.8293,1.926,7.47,1111122 
DISL,ioos:station:DISL:BSCA:1,2013-05-06T11:00:00Z,30.3288,-87.8293,1.922,7.36,1111122 
DISL,ioos:station:DISL:BSCA:1,2013-05-06T11:30:00Z,30.3288,-87.8293,1.969,7.25,1111122 
DISL,ioos:station:DISL:BSCA:1,2013-05-06T12:00:00Z,30.3288,-87.8293,2.047,7.29,1111122 
DISL,ioos:station:DISL:BSCA:1,2013-05-06T12:30:00Z,30.3288,-87.8293,2.031,7.21,1111122 
DISL,ioos:station:DISL:BSCA:1,2013-05-06T13:00:00Z,30.3288,-87.8293,2.049,7.69,1111122 
DISL,ioos:station:DISL:BSCA:1,2013-05-06T13:30:00Z,30.3288,-87.8293,2.043,7.66,1111122 
DISL,ioos:station:DISL:BSCA:1,2013-05-06T14:00:00Z,30.3288,-87.8293,2.051,7.59,1111122 
DISL,ioos:station:DISL:BSCA:1,2013-05-06T14:30:00Z,30.3288,-87.8293,2.046,8.16,1111122 
DISL,ioos:station:DISL:BSCA:1,2013-05-06T15:00:00Z,30.3288,-87.8293,2.153,8.22,1111122 
DISL,ioos:station:DISL:BSCA:1,2013-05-06T15:30:00Z,30.3288,-87.8293,2.035,8.41,1111122 